sat.trackr.live / text

‹ back to catalog

STARLINK-3659

NORAD 52001 · 2022-025AX

PAYLOAD ACTIVE UNKNOWN

§ Identity

Operator
Country
US
Launch date
2022-03-09
Launch site
AFETR
Launch vehicle
Mass (kg)
RCS (m²)

Purposes: comms

External: N2YO · Heavens-Above · Gunter

§ Orbital elements

Epoch: 2026-09-19T09:56:56.065056Z

Period
93.79 min
Inclination
53.1583°
Eccentricity
0.0001501
Mean motion
15.35396735 rev/d
Perigee alt
458.7 km
Apogee alt
460.8 km
Semi-major
6,837.9 km
B*
9.8321e-5
RAAN
218.6414°
Arg perigee
84.2626°
Mean anomaly
275.8548°
Rev number
25,031

§ Raw data

STARLINK-36591 52001U 22025AX  26262.41453779  .00003050  00000+0  98321-4 0  99912 52001  53.1583 218.6414 0001501  84.2626 275.8548 15.35396735250313

JSON: /api/v1/satellites/52001 · /tle

For live sub-satellite position, see the globe view (requires WebGL).

§ Visibility from observer

Set your observer location to see the next 7 days of passes ≥ 10°. The values pass through the URL so the page stays shareable.

No JS? Fill the form by hand. The geolocation button needs JavaScript.